#timestamp,LO_Frequency,Hit,StdDev 
1593442815.3,286047005.9,N
1593442835.1,286047003.3,N
1593442855.8,286047004.7,N
1593442875.7,286047005.5,N
1593442895.5,286047004.6,N
1593442915.4,286047003.4,N
1593442935.2,286047006.0,N
1593442955.0,286047005.8,N
1593442955.9,286047005.8,N
1593442975.8,286047004.9,N
1593442995.6,286047005.9,N
1593443015.4,286047003.2,N
1593443035.3,286047007.5,Y
1593443055.1,286046998.4,P
1593443075.9,286047003.9,N
1593443095.7,286047002.5,N
1593443115.5,286047002.7,N
1593443135.4,286047001.9,N
1593443155.2,286046999.9,N
1593443175.1,286047002.2,N
1593443176.0,286047002.2,N
1593443195.8,286046998.9,N
1593443215.6,286046999.0,N
1593443235.5,286046998.6,N
1593443255.3,286047000.3,N
1593443275.1,286047002.6,N
1593443295.9,286047002.8,N
1593443315.7,286047002.2,N
1593443335.6,286046996.7,N
1593443355.4,286046999.6,N
1593443375.2,286046994.9,N
1593443395.1,286046994.9,N
1593443396.0,286046994.9,N
1593443415.8,286046996.0,N
1593443435.6,286046995.4,N
1593443455.5,286046994.1,N
1593443475.3,286046996.3,N
1593443495.1,286046996.9,N
1593443515.9,286047000.6,N
1593443535.7,286046998.4,N
1593443555.6,286046998.8,N
1593443575.4,286046998.6,N
1593443595.2,286047002.4,N
1593443615.1,286047001.1,N
1593443616.0,286047001.1,N
1593443635.8,286046998.2,N
1593443655.7,286046998.1,N
1593443675.5,286046998.5,N
1593443695.3,286046998.9,N
1593443715.2,286046997.4,N
1593443735.0,286046997.3,N
1593443735.9,286046997.3,N
1593443755.7,286046998.8,N
1593443775.6,286047001.2,N
1593443795.4,286046997.4,N
1593443815.3,286046999.0,N
1593443835.1,286046996.9,N
1593443836.0,286046996.9,N
1593443855.8,286046999.1,N
1593443875.7,286046997.1,N
1593443895.5,286046993.5,Y
1593443915.3,286046997.6,P
1593443935.2,286046993.3,P
1593443955.0,286046997.8,N
1593443955.9,286046997.8,N
1593443975.8,286047000.8,N
1593443995.6,286046998.5,N
1593444015.4,286046997.2,N
1593444035.3,286046999.1,N
1593444055.1,286046997.9,N
1593444075.8,286046997.5,N
1593444095.7,286046998.0,N
1593444115.5,286046994.1,Y
1593444135.4,286046999.3,P
1593444155.2,286046996.8,P
1593444175.0,286046999.6,N
1593444175.9,286046999.6,N
1593444195.8,286046997.7,N
1593444215.6,286046993.4,Y
1593444235.5,286046995.8,P
1593444255.3,286046997.5,N
1593444275.1,286046995.1,P
1593444295.9,286046994.9,Y
1593444315.7,286046998.7,P
1593444335.5,286047001.1,N
1593444355.4,286047000.4,N
1593444375.2,286046999.9,N
1593444395.1,286047000.8,N
1593444396.0,286047000.8,N
1593444415.8,286047000.6,N
1593444435.6,286047000.0,N
1593444455.5,286047000.9,N
1593444475.3,286046993.5,Y
1593444495.1,286046996.7,P
1593444515.9,286047000.4,N
1593444535.7,286047004.0,N
1593444555.6,286047004.2,N
1593444575.4,286047003.8,N
1593444595.2,286047004.9,N
1593444615.1,286047007.0,N
1593444616.0,286047007.0,N
1593444635.8,286047002.9,N
1593444655.6,286047007.5,N
1593444675.5,286047004.4,N
1593444695.3,286047003.6,N
1593444715.2,286047001.7,N
1593444735.9,286047001.1,N
1593444755.7,286047000.8,N
1593444775.6,286047000.8,N
1593444795.4,286047002.4,N
1593444815.2,286047002.1,N
1593444835.1,286047001.6,N
1593444836.0,286047001.6,N
1593444855.8,286047001.8,N
1593444875.6,286047003.7,N
1593444895.5,286047002.6,N
1593444915.3,286047002.6,N
1593444935.2,286047000.6,N
1593444955.9,286047001.0,N
1593444975.7,286046999.9,N
1593444995.6,286047000.5,N
1593445015.4,286047002.6,N
1593445035.2,286047002.8,N
1593445055.1,286047002.7,N
1593445056.0,286047002.7,N
1593445075.8,286046999.3,N
1593445095.7,286046999.1,N
1593445115.5,286046999.0,N
1593445135.3,286046997.7,N
1593445155.2,286046999.5,N
1593445175.0,286046998.8,N
1593445175.9,286046998.8,N
1593445195.7,286046998.9,N
1593445215.6,286047000.1,N
1593445235.4,286046999.9,N
1593445255.3,286047001.1,N
1593445275.1,286046999.4,N
1593445276.0,286046999.4,N
1593445295.8,286046994.4,Y
1593445315.7,286046992.4,P
1593445335.5,286046993.5,N
1593445355.3,286046995.8,N
1593445375.2,286046999.5,N
1593445395.0,286046997.4,N
1593445395.9,286046997.4,N
1593445415.8,286046995.4,N
1593445435.6,286046995.1,N
1593445455.4,286046996.9,N
1593445475.3,286046998.8,N
1593445495.1,286047001.2,N
1593445515.8,286046997.3,N
1593445535.7,286046995.3,N
1593445555.5,286046997.6,N
1593445575.4,286046998.0,N
1593445595.2,286046994.4,N
1593445615.0,286046994.2,N
1593445615.9,286046994.2,N
1593445635.8,286046993.3,N
1593445655.6,286046993.4,N
1593445675.4,286046993.4,N
1593445695.3,286046994.8,N
1593445715.1,286046990.4,Y
1593445735.9,286046995.3,P
1593445755.7,286046996.3,P
1593445775.5,286046992.5,P
1593445795.4,286046993.6,Y
1593445815.2,286046999.9,P
1593445835.0,286047002.4,N
1593445835.9,286047002.4,N
1593445855.8,286047000.6,N
1593445875.6,286047004.0,N
1593445895.5,286047004.0,N
1593445915.3,286047001.3,N
1593445935.1,286046998.3,N
1593445955.9,286046999.9,N
1593445975.7,286047002.7,N
1593445995.5,286046999.8,N
1593446015.4,286046998.2,N
1593446035.2,286047002.1,N
1593446055.0,286047004.2,N
1593446056.0,286047004.2,N
1593446075.8,286047004.9,N
1593446095.6,286047007.6,N
1593446115.5,286047004.6,N
1593446135.3,286047007.8,N
1593446155.1,286047004.9,N
1593446175.9,286047007.2,N
1593446195.7,286047007.6,N
1593446215.5,286047007.5,N
1593446235.4,286047002.3,N
1593446255.2,286047004.4,N
1593446275.1,286047001.3,N
1593446276.0,286047001.3,N
1593446295.8,286047004.2,N
1593446315.6,286047004.2,N
1593446335.5,286047001.7,N
1593446355.3,286047003.6,N
1593446375.1,286047006.8,N
1593446395.9,286047004.9,N
